Погода в Новой Майне

Россия / Ульяновская область     54°08′53″N   49°46′16″E
темп.,
°C
ветер,
м/с
пор.,
м/с
влажн.,
%
обл.,
%
осадки,
мм/ч
давл.,
гПа
погр.,
м
27 июля, вт
вт2701:00+14з24655 0.0 102171
04:00+14з247221 0.0 102058
07:00+17з386395 0.0 1019245
10:00+24зсз584217 0.0 10191241
13:00+26зсз673695 0.0 10172746
16:00+25сз573979 0.0 10161936
19:00+23ссз575337 0.0 1016838
22:00+16зсз22805 0.0 101618
28 июля, ср
ср2801:00+15зсз228417 0.0 101623
04:00+17зсз267484 0.0 1016162
07:00+18сз266718 0.0 1016250
10:00+23сз35505 0.0 10161306
13:00+24сз354479 0.1 10152090
16:00+26ссз55343 0.1 10142502
19:00+23с24450 0.0 1014591
22:00+17в22600 0.0 101413
29 июля, чт
чт2901:00+15ю22590 0.0 101413
04:00+15ю22615 0.0 101320
07:00+18ююз256894 0.0 1013171
10:00+24юз5849100 0.1 1011718
13:00+27юз6941100 0.0 10092194
16:00+20ююв4107294 0.3 1008365
19:00+27юз6124193 0.0 10041405
22:00+21зюз4127282 0.4 1004314
30 июля, пт
пт3001:00+18з3893100 0.0 1005229
04:00+17з279892 0.0 1005180
07:00+19з3788100 0.0 1006275
10:00+25з4660100 0.0 1007966
13:00+29з463951 0.0 10062432
16:00+26з3648100 0.0 1006649
19:00+26зсз255196 0.0 1007327
22:00+23з115974 0.0 100711
31 июля, сб
сб3101:00+20зюз117148 0.0 100811
04:00+18зюз22820 0.0 100821
07:00+21зюз24755 0.0 1009168
10:00+28юз344842 0.0 1008918
13:00+30юз453731 0.0 10081937
16:00+30зюз463761 0.0 10071648
19:00+27зсз3652100 0.0 1008319
22:00+23зсз246697 0.0 100970